Weather History for Pine Bluff, AR

Change the Weather History Date:

Thursday, August 7, 2014

  Actual Average Record
Temperature  
Mean Temperature 82 °F 82 °F  
Max Temperature 90 °F 92 °F 108 °F (1947)
Min Temperature 74 °F 72 °F 60 °F (1894)
Degree Days  
Heating Degree Days 0 0  
Month to date heating degree days 0 0  
Since 1 June heating degree days 1 0  
Since 1 July heating degree days 1 0  
Cooling Degree Days 17 17  
Month to date cooling degree days 95 119  
Year to date cooling degree days 1137 1376  
Since 1 June cooling degree days 874 1069  
Growing Degree Days 32 (Base 50)    
Moisture  
Dew Point 73 °F    
Average Humidity 79    
Maximum Humidity 94    
Minimum Humidity 63    
Precipitation  
Precipitation 0.10 in 0.10 in 2.52 in (1945)
Month to date precipitation 0.16 0.71  
Year to date precipitation 27.81 31.42  
Snow  
Snow 0.00 in 0.00 in - ()
Month to date snowfall 0.0 0.0  
Since 1 June snowfall 0.0 0.0  
Since 1 July snowfall 0.0 0.0  
Snow Depth 0.00 in    
Sea Level Pressure  
Sea Level Pressure 29.93 in    
Wind  
Wind Speed 6 mph (SSW)    
Max Wind Speed 20 mph    
Max Gust Speed 24 mph    
Visibility 9 miles    
Events Rain , Thunderstorm    
T = Trace of Precipitation, MM = Missing Value Source: NWS Daily Summary

Daily Weather History Graph

Daily Weather History Graph

Search for Another Location

Airport:

Trip Planner

Search our weather history database for the weather conditions in past years. The results will help you decide how hot, cold, wet, or windy it might be!

Date:

Astronomy

Aug. 07, 2014 Rise Set
Actual Time 6:23 AM CDT 8:03 PM CDT
Civil Twilight 5:56 AM CDT 8:30 PM CDT
Nautical Twilight 5:23 AM CDT 9:02 PM CDT
Astronomical Twilight 4:49 AM CDT 9:36 PM CDT
Moon 5:18 PM CDT (8/7) 2:56 AM CDT (8/7)
Length of Visible Light 14h 34m
Length of Day
13h 40m
Waxing Gibbous, 87% of the Moon is Illuminated
Aug 7
Waxing Gibbous
Aug 10
Full
Aug 17
Last Quarter
Aug 25
New
Sep 2
First Quarter

Hourly Weather History & Observations

Time (CDT) Temp. Heat Index Dew Point Humidity Pressure Visibility Wind Dir Wind Speed Gust Speed Precip Events Conditions
12:53 AM 77.0 °F - 73.0 °F 88% 29.96 in 10.0 mi Calm Calm - N/A   Partly Cloudy
1:53 AM 75.9 °F - 73.0 °F 91% 29.95 in 9.0 mi Calm Calm - N/A   Scattered Clouds
2:53 AM 77.0 °F - 73.9 °F 90% 29.94 in 9.0 mi South 4.6 mph - N/A   Mostly Cloudy
3:53 AM 77.0 °F - 73.0 °F 88% 29.95 in 9.0 mi South 4.6 mph - N/A   Clear
4:53 AM 77.0 °F - 73.0 °F 88% 29.94 in 10.0 mi SSW 4.6 mph - N/A   Clear
5:53 AM 75.0 °F - 72.0 °F 90% 29.94 in 8.0 mi South 6.9 mph - N/A   Clear
6:53 AM 75.0 °F - 72.0 °F 90% 29.96 in 6.0 mi South 5.8 mph - N/A   Clear
7:53 AM 77.0 °F - 73.0 °F 88% 29.97 in 9.0 mi SSW 4.6 mph - N/A   Clear
8:53 AM 81.0 °F 86.2 °F 73.9 °F 79% 29.98 in 10.0 mi WSW 6.9 mph - N/A   Clear
9:53 AM 84.9 °F 93.3 °F 75.0 °F 72% 29.98 in 10.0 mi WSW 10.4 mph - N/A   Clear
10:53 AM 88.0 °F 96.5 °F 73.9 °F 63% 29.98 in 10.0 mi WSW 8.1 mph - N/A   Partly Cloudy
11:53 AM 87.1 °F 96.3 °F 75.0 °F 67% 29.96 in 10.0 mi SW 6.9 mph - 0.00 in Rain Light Rain
12:25 PM 90.0 °F 99.0 °F 73.9 °F 59% 29.95 in 10.0 mi WNW 11.5 mph 19.6 mph 0.00 in Thunderstorm Scattered Clouds
12:43 PM 86.0 °F 90.7 °F 70.0 °F 59% 29.96 in 10.0 mi West 16.1 mph 19.6 mph 0.00 in Thunderstorm Thunderstorm
12:53 PM 77.0 °F - 70.0 °F 79% 29.95 in 2.5 mi West 6.9 mph 24.2 mph 0.09 in Rain , Thunderstorm Heavy Thunderstorms and Rain
1:03 PM 79.0 °F - 70.0 °F 74% 29.96 in 10.0 mi NW 4.6 mph - 0.01 in Rain , Thunderstorm Light Thunderstorms and Rain
1:23 PM 80.1 °F 83.6 °F 71.1 °F 74% 29.95 in 10.0 mi West 9.2 mph - 0.01 in   Partly Cloudy
1:53 PM 80.1 °F 83.8 °F 72.0 °F 76% 29.93 in 10.0 mi SSW 4.6 mph - 0.01 in Thunderstorm Scattered Clouds
2:21 PM 81.0 °F 85.8 °F 73.0 °F 77% 29.95 in 10.0 mi SSW 17.3 mph - N/A Thunderstorm Thunderstorm
2:53 PM 79.0 °F - 71.1 °F 77% 29.93 in 10.0 mi South 9.2 mph - N/A   Mostly Cloudy
3:53 PM 80.1 °F 83.6 °F 71.1 °F 74% 29.91 in 10.0 mi SW 5.8 mph - N/A   Mostly Cloudy
4:53 PM 82.4 °F 87.2 °F 71.6 °F 70% 29.89 in 10.0 mi South 9.2 mph - N/A   Clear
5:53 PM 82.0 °F 87.4 °F 73.0 °F 74% 29.87 in 10.0 mi SSE 8.1 mph - N/A   Clear
6:53 PM 81.0 °F 86.2 °F 73.9 °F 79% 29.87 in 10.0 mi Calm Calm - N/A   Clear
7:53 PM 80.1 °F 85.1 °F 75.0 °F 85% 29.88 in 10.0 mi SE 4.6 mph - N/A   Clear
8:53 PM 78.1 °F - 75.0 °F 90% 29.89 in 10.0 mi ESE 4.6 mph - N/A   Clear
9:53 PM 77.0 °F - 75.0 °F 94% 29.90 in 10.0 mi ESE 3.5 mph - N/A   Scattered Clouds
10:53 PM 77.0 °F - 73.9 °F 90% 29.91 in 10.0 mi SSE 6.9 mph - N/A   Clear
11:53 PM 77.0 °F - 73.4 °F 89% 29.90 in 10.0 mi SSE 4.6 mph - N/A   Clear